Timeline UpdatesTrip UpdatesNews PostsPvt Posts♥♥Travel TipsAdmin PostsConv PostsFollowed PostsChat RequestsBlog PostsPNR Posts

Disclaimer
Search
 
 
Sun Oct 26, 2014 11:27:22 ISTHomeTrainsΣChainsAtlasPNRForumGalleryNewsFAQTripsMembersLoginFeedback
No Recent News for this Train
Other Trains in the News **new
Latest...
The 15483 Alipurduar Jn. - Delhi Sikkim Mahananda Express scheduled to leave Alipurduar Junction at 07.15 hours of 2nd August 2014 is cancelled as the 15484 Delhi - Alipurduar Jn. Sikkim Mahananda Express scheduled to leave Delhi on 31st July 2014 has been cancelled by Northern Railway.
Thu Jul 31, 2014 (07:59PM)
⇐ Return Journey: Train# 15483

14084⇒15484/Sikkim Mahananda Express

Oct 26 departure has been Rescheduled to start 16h 45m late
New Time: 23:20
Time-Table HAS CHANGED.
Sep 04 2014 (12:24AM)
Change Departure Station:
Change Arrival Station:
Post a Train Travel TipPost a Train Travel Tip **new
Post a Comment/Question/Picture/VideoPost a Comment/Question/Picture/Video
Pantry/Catering
✓ Pantry Car Avbl
✓ Catering Avbl
RSA - Rake Sharing
Rake/Coach Composition
LOCO-SLR-GS-GS-GS-S1-S2-S3-S4-S5-S6-S7-S8-S9-S10-S11-PC-B1-AB-GS-GS-GS-SLR
Loco
DLI - PNBE: Mughalsarai shed WAP-4 or Ghaziabad shed WAP-4/7 PNBE...
Read more...
- APDJ: WDP4/4B of Siliguri shed. **Spotted with MGS WAP-4 22739 at MGS on 30/03/2013**
News    PNR    Forum    Time-Table    Availability    Fare Chart    Map    Arr/Dep History    Trips    Gallery    ΣChains    X/O    Timeline    
Travel Time: 6h 21m    11 halts    Distance: 316 km    Avg Speed: 49 km/hr
Type: Mail/Express
Zone: NFR/Northeast Frontier
Departs @ 06:35 (Avg 41m late)
Platform# 9
SMTWTFS
Old Delhi Junction/DLI 
Arrives @ 12:56 (Avg 1h 12m late)
Platform# 3
SMTWTFS
Bharthana/BNT 

11 halts. 45 intermediate Stations between Old Delhi Junction and Bharthana

Show ALL intermediate Stations  Show Old Time-Table

#TrkCodeStation NameX/OArrivesAvgDepartsAvgHaltPFDay#KmSpeedElevZoneAddress
1/==/DLIOld Delhi Junction (16)»  -06:40 06:35+41910.027219mNRNear Chandni Chowk Metro Station, Delhi NCT
2/==/DSAShahdara Junction (4)X  06:56 06:49+4606:58 06:51+482m216.325212mNRCircular Rd, Delhi NCT
3/==/GZBGhaziabad Junction (6)X  07:26 07:24+4207:28 07:26+462m2119.976217mNRGhaziabad, Uttar Pradesh
4/==/CHLChola (3)  08:04+1:0008:06+1:052m--168.058204mNCRTahsil Bulandshahar, Uttar Pradesh
5/==/KRJKhurja Junction (4)X  08:21+1:0508:23+1:072m2182.671199mNCRBulandshahr, Uttar Pradesh
6/==/ALJNAligarh Junction (4)X  09:00+5909:05+1:005m11126.182192mNCRAligarh, Uttar Pradesh
7/==/HRSHathras Junction (3)X  09:27+1:1209:32+1:095m11156.286183mNCRMahamaya Nagar(05722-242803), Uttar Pradesh
8/==/JLSJalesar Road (1)X  09:46+1:1309:48+1:212m11176.323172mNCRMDR 106W, Uttar Pradesh
9/==/TDLTundla Junction (5)X  11:00+5311:08+548m31204.252167mNCRDistt.Firozabad, Uttar Pradesh
10/==/FZDFirozabad (4)  11:30 11:27+5711:32+562 5m21220.866164mNCRFirozabad, Uttar Pradesh
11/==/SKBShikohabad Junction (4)X  11:53 11:50+5611:55+552 5m21240.683166mNCRDistrict Firozabad, Uttar Pradesh
12/==/ETWEtawah (5)  12:38 12:35+1:0312:40+1:072 5m31296.075154mNCRDistt. Etawah, Uttar Pradesh
13/==/BNTBharthana (3)•  12:56+1:1212:58+1:132m31315.969147mNCRBharthana, Uttar Pradesh
14/==/ULDAchalda (3)  13:15+1:1413:17+1:032m31335.463147mNCRDist. Auraiya(05688-1072), Uttar Pradesh
15/==/PHDPhaphund (4)X  13:33+1:0013:35+1:002m31352.270146mNCRdist. Auraiya, Uttar Pradesh
16/==/JJKJhinjhak (3)X  13:52+1:0213:54+1:022m31372.067140mNCRAuraiya, Uttar Pradesh
17/==/RURARura (4)X  14:11+1:0414:13+1:042m31391.160137mNCRJhinjhak, Uttar Pradesh
18/==/PNKPanki (3) new halt!!X  14:46+1:0714:48+1:102m21423.929129mNCRKANPUR-208 020, Uttar Pradesh
19/==/CNBKanpur Central (10)X  15:12+1:2015:20+1:248m51435.478128mNCRKANPUR-208 001, Uttar Pradesh
20/==/FTPFatehpur (3)  16:23 16:20+1:5316:25+1:562 5m21513.078120mNCRFatehpur, Uttar Pradesh
21/==/ALDAllahabad Junction (10)X  17:55+2:1818:05+2:3110m41629.739100mNCRAllahabad 211003, Uttar Pradesh
22/==%NYNNaini Junction (4)  18:16+2:4918:18+2:552m11636.88698mNCRAllahabad, Uttar Pradesh
23/==/BDLVindhyachal (3)X  19:10+3:2319:12+3:272m21711.62488mNCRMirzapur, Uttar Pradesh
24/==/MZPMirzapur (3)X  19:33 19:30+3:1519:35+3:242 5m21718.94588mNCRMirzapur, Uttar Pradesh
25/==/MGSMughal Sarai Junction (8)  21:00+4:0821:15+4:0315m11782.16683mECRDistt: Chandauli Pin 232101, Uttar Pradesh
26/==/BXRBuxar (3)X  22:41+4:0722:43+4:082m--1876.09167mECRBuxar, Bihar
27/==/ARAAra Junction (3)  23:28+4:0923:30+4:092m--1944.58863mECRDistt: Bhojpur Ph 06182-233411, Bihar
28/==/DNRDanapur (5)  23:57+4:2823:59+4:212m--1984.01658mECRKhagaul, Bihar
29/==/PNBEPatna Junction (10)X00:35+3:5201:00+3:5825m22993.47857mECRPatna 800001, Bihar
30/==/BKPBakhtiyarpur Junction (5)X  01:35+4:4501:37+4:462m--21038.85851mECRPatna, Bihar
31/==/MKAMokama Junction (4)X  02:22+4:5002:24+4:512m--21082.71448mECRPatna, Bihar
32/--%BJUBarauni Junction (9)  03:55+4:2304:00+4:245m121103.34249mECRBegusarai, Bihar
33%--%BGSBegusarai (3)  04:22 04:19+4:3404:24+4:322 5m--21116.84646mECRBegusarai, Bihar
34%==%LKNLakhminia (3)  04:54 04:47+4:3304:56 04:49+4:332m--21134.64845mECRBegusarai, Bihar
35%==%SKJSahibpur Kamal Junction (2)  05:08 05:01+4:2805:10 05:03+4:292m--21144.34641mECRShahpur Kamal, Bihar
36%==%KGGKhagaria Junction (3)XO  05:36 05:19+4:2105:38 05:20+4:252 1m--21156.72043mECRKhagaria, Bihar
37|-=%MNEMansi Junction (4)  05:46+4:2205:48+4:242m--21165.54243mECRMansi, Bihar
38%==%MSKMahes Khunt (2)  06:03+4:2206:05+4:222m--21175.93237mECRMaheshkhunt, Bihar
39%==%PSRPasraha (3)XO  06:28+4:3106:30+4:392m--21188.22541mECRPasraha, Bihar
40%==%NNRNarayanpur (2)XOO  06:58+4:2607:00+4:272m--21199.82739mECRNarayanpur, Bihar
41%==%NNANaugachia (3)X  08:04 07:53+4:0208:06 07:55+4:022m121223.46237mECRBhagalpur, Bihar
42%-=%KUEKurselaX  08:36 08:13+4:0708:38 08:15+4:072m--21241.94231mECRNH 31, Bihar
43%==%CRRKaragola RoadX  08:55 08:39+4:0608:57 08:41+4:062m--21258.96536mECRLachhmipur, Bihar
44%=-%SMOSemapurX  09:11 08:51+4:0009:13 08:53+4:012m--21269.61935mECRKatihar, Bihar
45%--%KIRKatihar Junction (7)  09:30+4:0709:50+4:0820m621281.25135mNFRKatihar 854105, Bihar
46%--%LAVLabha (2)  10:16 10:17+4:1610:18 10:19+4:172m121304.15429mNFRDist : Katihar, Bihar
47%==%AZRAzamnagar Road (3)X  10:41 10:43+4:2010:43 10:45+4:212m--21325.85334mNFRAzamnagar, Bihar
48%==%BOEBarsoi Junction (3)  10:56 11:00+4:3310:58 11:02+4:402m--21339.17337mNFRdist- katihar, Bihar
49%==%DLKDalkhola (3)  11:21 11:26+4:4911:23 11:28+4:502m--21368.27144mNFRDalkola, West Bengal
50%==%KNEKishanGanj (3)  11:48 11:52+4:5911:50 11:54+4:592m121396.77652mNFRKishanganj, Bihar
51%==%AUBAluabari Road (2)  12:15 12:18+4:5812:17 12:20+4:582m221427.3490mNFRDist - uttar Dinajpur, West Bengal
52%==|NJPNew Jalpaiguri Junction (8)X  13:30+4:2513:45+4:2615m121484.122114mNFRCity-Siliguri . Dist-Jalpaiguri, West Bengal
53|--|SGUJSiliguri Junction (5)O  14:05+4:2514:10 14:15+4:285 10m421491.361120mNFRDist-Darjeeling Siliguri-734001, West Bengal
54|--|NMZNew Mal Junction (3)X  15:06 15:02+5:1415:11 15:07+5:155m--21539.167161mNFRDist - Jalpaiguri, West Bengal
55|--|BNVBinnaguri (3)  15:50 15:47+5:5615:52+5:332 5m--21583.449132mNFRDist : jalpaiguri, West Bengal
56|--|DLODalgaon (3)  16:03+5:1516:05+5:152m--21592.447 NFRDist : Alipurduar, West Bengal
57|--|HSAHasimara (3)X  16:40 16:37+5:3816:42 16:39+5:422m--21617.717123mNFRDist - Alipurduar, West Bengal
58|--|APDJAlipur Duar Junction (3)  18:00 18:45+5:04---21652.5-53mNFRDist - Alipurduar, West Bengal
Scroll to Top
Scroll to Bottom